Youngstown, OH

11:36 AM EDT on March 23, 2017 (GMT -0400)
Youngstown-Warren Regional

Weather History for KYNG - March, 2012

Change the Weather History Date:

Tuesday, March 27, 2012

  Actual Average Record
Temperature  
Mean Temperature 36 °F 41 °F  
Max Temperature 52 °F 50 °F 79 °F (1989)
Min Temperature 20 °F 31 °F 12 °F (1982)
Degree Days  
Heating Degree Days 29 24  
Month to date heating degree days 398 785  
Since 1 July heating degree days 4337 5433  
Cooling Degree Days 0 0  
Month to date cooling degree days 7 0  
Year to date cooling degree days 7 0  
Moisture  
Dew Point 16 °F    
Average Humidity 53    
Maximum Humidity 84    
Minimum Humidity 21    
Precipitation  
Precipitation 0.00 in 0.10 in 1.09 in (1992)
Month to date precipitation 2.32 2.51  
Year to date precipitation 10.04 7.21  
Snow  
Snow 0.00 in 0.30 in - ()
Month to date snowfall 3.0 10.0  
Since 1 July snowfall 55.3 58.8  
Snow Depth 0.00 in    
Sea Level Pressure  
Sea Level Pressure 30.28 in    
Wind  
Wind Speed 7 mph (SE)    
Max Wind Speed 13 mph    
Max Gust Speed 18 mph    
Visibility 10 miles    
Events      
T = Trace of Precipitation, MM = Missing Value Source: NWS Daily Summary

Daily Weather History Graph

Daily Weather History Graph

Search for Another Location

Airport or City:

Trip Planner

Search our weather history database for the weather conditions in past years. The results will help you decide how hot, cold, wet, or windy it might be!

Date:

Astronomy

Mar. 27, 2012 Rise Set
Actual Time 7:13 AM EDT 7:42 PM EDT
Civil Twilight 6:45 AM EDT 8:10 PM EDT
Nautical Twilight 6:13 AM EDT 8:43 PM EDT
Astronomical Twilight 5:39 AM EDT 9:17 PM EDT
Moon 9:40 AM EDT (3/27) No Moon Set
Length of Visible Light 13h 24m
Length of Day
12h 29m
Waxing Crescent, 22% of the Moon is Illuminated
Mar 27
Waxing Crescent
Mar 30
First Quarter
Apr 6
Full
Apr 13
Last Quarter
Apr 21
New

Hourly Weather History & Observations

Time (EDT) Temp. Windchill Dew Point Humidity Pressure Visibility Wind Dir Wind Speed Gust Speed Precip Events Conditions
12:51 AM 28.9 °F 22.8 °F 21.9 °F 75% 30.36 in 10.0 mi North 5.8 mph - N/A   Clear
1:51 AM 28.9 °F 21.9 °F 16.0 °F 58% 30.37 in 10.0 mi NNE 6.9 mph - N/A   Clear
2:51 AM 28.0 °F 21.7 °F 16.0 °F 61% 30.37 in 10.0 mi NNE 5.8 mph - N/A   Clear
3:51 AM 26.1 °F 21.9 °F 15.1 °F 63% 30.38 in 10.0 mi NNE 3.5 mph - N/A   Clear
4:51 AM 25.0 °F 20.7 °F 15.1 °F 66% 30.38 in 10.0 mi NE 3.5 mph - N/A   Clear
5:51 AM 24.1 °F - 15.1 °F 69% 30.38 in 10.0 mi Calm Calm - N/A   Clear
6:51 AM 21.9 °F 17.2 °F 15.1 °F 75% 30.38 in 10.0 mi East 3.5 mph - N/A   Partly Cloudy
7:51 AM 21.2 °F 16.4 °F 17.6 °F 86% 30.34 in 10.0 mi East 3.5 mph - N/A   Partly Cloudy
8:51 AM 28.9 °F 22.8 °F 16.0 °F 58% 30.39 in 10.0 mi East 5.8 mph - N/A   Partly Cloudy
9:51 AM 32.0 °F 24.8 °F 16.0 °F 52% 30.40 in 10.0 mi SSE 8.1 mph - N/A   Partly Cloudy
10:51 AM 34.0 °F 28.0 °F 14.0 °F 44% 30.39 in 10.0 mi SSE 6.9 mph - N/A   Partly Cloudy
11:51 AM 37.9 °F 33.5 °F 12.9 °F 36% 30.39 in 10.0 mi Variable 5.8 mph - N/A   Scattered Clouds
12:51 PM 39.9 °F 35.8 °F 12.9 °F 33% 30.38 in 10.0 mi Variable 5.8 mph - N/A   Scattered Clouds
1:51 PM 44.1 °F 41.5 °F 15.1 °F 31% 30.32 in 10.0 mi Variable 4.6 mph - N/A   Scattered Clouds
2:51 PM 46.9 °F - 15.1 °F 28% 30.28 in 10.0 mi South 6.9 mph - N/A   Mostly Cloudy
3:51 PM 50.0 °F - 15.1 °F 25% 30.25 in 10.0 mi SSE 8.1 mph - N/A   Mostly Cloudy
4:51 PM 51.8 °F - 12.2 °F 21% 30.18 in 10.0 mi South 10.4 mph 17.3 mph N/A   Mostly Cloudy
5:51 PM 51.1 °F - 14.0 °F 23% 30.18 in 10.0 mi SSE 11.5 mph - N/A   Mostly Cloudy
6:51 PM 51.1 °F - 18.0 °F 27% 30.16 in 10.0 mi South 6.9 mph - N/A   Overcast
7:51 PM 48.9 °F - 17.1 °F 28% 30.13 in 10.0 mi SSE 6.9 mph - N/A   Mostly Cloudy
8:51 PM 48.9 °F - 18.0 °F 29% 30.09 in 10.0 mi South 9.2 mph - N/A   Mostly Cloudy
9:51 PM 46.9 °F - 18.0 °F 32% 30.06 in 10.0 mi SSE 8.1 mph - N/A   Mostly Cloudy
10:51 PM 48.0 °F - 19.0 °F 32% 30.05 in 10.0 mi South 6.9 mph - N/A   Overcast
11:51 PM 48.9 °F - 19.0 °F 31% 30.01 in 10.0 mi South 11.5 mph - N/A   Overcast